Theta_e
353 353 352 351 350 350 351 350 348 349 348 347 347 344 343 344 344 346 348 348 349 349 349 349 350 350 349 349 349 349 348 348 348 346 345 344 343 345 347 348 349 349 349 349 349 350 349 349 351 353 354 354 354 353 353 353 353 354 355 356 356 357 355
354 354 353 351 351 350 350 350 348 349 349 348 347 346 343 344 344 346 348 348 349 348 349 350 350 349 349 349 349 348 348 348 347 347 345 344 343 344 346 347 347 348 347 347 348 349 348 348 350 352 354 354 354 353 353 352 352 353 354 356 356 356 355
354 355 354 352 352 351 351 350 348 348 349 349 348 347 345 344 344 345 347 348 348 348 349 350 350 350 349 349 348 348 347 347 348 348 346 344 342 344 345 345 346 346 346 346 347 349 348 348 349 352 354 355 354 354 353 354 353 352 353 355 356 356 355
355 355 353 353 352 351 351 349 348 349 349 349 349 348 346 344 344 344 346 348 348 348 349 350 350 350 350 349 349 348 348 347 347 347 347 345 342 343 344 344 345 345 345 345 345 347 348 348 349 351 353 355 355 354 353 354 354 354 354 355 355 355 355
357 356 354 354 353 351 352 350 348 349 348 349 349 349 348 346 344 345 345 347 348 348 348 349 350 350 350 349 349 348 347 347 346 346 346 346 345 344 344 343 344 344 344 343 343 344 346 347 347 348 351 352 354 354 353 354 353 354 355 356 356 355 355
355 356 354 354 353 352 351 350 349 348 348 349 349 349 348 347 346 345 345 346 348 348 348 349 350 350 350 349 349 348 348 347 346 345 346 346 346 346 344 344 343 344 343 342 341 342 343 345 346 347 349 350 352 353 353 353 353 353 355 356 357 356 355
351 355 355 354 353 352 350 349 350 348 348 348 348 349 350 348 347 346 345 345 347 348 348 348 349 350 350 349 348 349 348 348 346 345 345 346 346 346 345 344 344 343 342 341 342 342 342 343 344 345 346 349 350 351 351 352 353 353 354 355 356 355 356
346 353 355 355 352 352 351 350 350 348 349 348 348 350 349 349 349 347 346 346 346 347 348 348 349 349 350 349 349 349 348 348 348 346 345 345 345 346 345 344 343 343 341 342 343 343 342 342 342 344 346 348 350 350 350 350 351 352 353 353 354 354 356
339 345 351 353 352 352 351 350 349 348 348 349 348 349 350 350 350 349 349 348 346 347 347 348 349 349 350 350 349 349 348 348 348 347 345 345 345 346 345 344 343 342 341 342 343 344 343 342 342 343 345 347 349 349 349 348 347 349 352 352 353 353 353
334 336 341 345 349 353 351 350 350 348 348 349 348 349 349 350 351 350 350 349 348 348 347 348 349 349 350 350 349 349 348 348 347 347 346 345 344 345 345 345 343 342 342 341 343 344 344 343 342 343 344 345 347 349 349 347 345 346 349 351 352 351 351
331 331 333 335 338 342 345 347 350 349 348 348 348 350 350 350 350 351 351 350 350 350 349 348 349 349 350 350 350 349 348 349 348 347 346 345 344 344 344 345 345 343 342 341 342 343 343 342 342 343 344 344 345 346 346 344 342 343 347 348 349 350 351
329 328 330 330 330 333 334 337 340 343 347 348 348 349 349 350 351 351 351 352 351 350 350 349 349 349 349 350 350 350 349 349 348 347 347 346 344 344 343 344 345 345 344 343 342 343 342 342 341 341 342 343 343 343 342 340 339 340 343 345 347 350 351
327 327 327 327 328 328 329 331 332 334 338 343 347 349 349 351 350 351 352 352 352 352 351 351 350 349 350 350 351 350 350 349 348 348 348 346 345 345 343 343 343 343 345 344 344 343 342 341 340 340 340 340 340 340 339 339 337 337 341 344 346 348 350
326 326 326 326 326 326 327 329 329 331 333 336 340 344 347 350 351 351 352 352 352 353 352 352 351 350 351 350 350 351 350 350 349 348 347 347 346 346 344 343 342 342 343 343 343 344 343 343 342 340 340 339 339 339 338 339 339 338 341 345 348 349 350
324 324 325 325 325 326 326 327 327 328 330 332 334 337 340 345 350 352 352 352 352 353 353 354 352 351 351 350 350 350 351 351 350 349 348 347 346 346 345 344 343 342 342 341 341 342 342 343 343 342 342 341 341 340 340 341 341 341 341 344 347 349 350
324 323 323 323 324 325 324 325 326 327 329 329 331 333 335 339 343 349 352 352 352 353 353 354 353 353 352 351 350 351 350 351 350 349 349 347 347 346 346 345 344 343 342 341 341 340 340 341 342 342 343 343 343 343 343 343 342 343 342 344 345 347 349
323 322 322 322 323 323 323 324 325 326 328 329 329 330 332 335 338 341 346 351 353 352 352 354 354 353 353 353 351 351 350 350 350 350 350 348 348 347 346 345 344 343 343 342 340 340 340 339 339 340 341 341 343 343 344 344 344 344 344 343 344 345 348
323 322 322 321 321 322 322 322 324 325 326 328 328 329 330 332 334 335 338 344 349 353 353 354 355 355 354 353 353 352 351 350 350 349 350 349 348 347 347 346 345 345 344 342 341 341 340 339 338 338 338 339 339 340 342 343 343 344 344 344 344 345 347
322 321 321 321 321 323 322 322 323 324 325 327 327 328 329 330 331 332 333 337 343 350 353 354 355 354 354 354 354 353 353 352 351 351 350 349 349 348 347 346 346 345 345 344 343 342 341 340 339 338 338 338 338 339 340 340 341 342 343 344 344 345 347
323 322 322 321 321 321 322 322 323 323 324 325 326 327 328 329 329 330 331 334 338 345 351 355 356 355 356 355 355 355 355 353 352 351 351 351 350 349 348 347 346 346 345 345 344 343 342 342 341 340 339 339 339 339 339 340 341 341 342 343 345 345 347
324 323 322 322 321 320 320 320 322 322 323 324 324 325 326 327 327 328 330 333 336 340 345 351 355 356 357 357 356 356 356 355 355 354 353 353 352 351 350 349 348 347 346 345 345 344 344 343 342 342 341 341 341 340 340 340 340 342 343 343 344 345 348
325 325 324 323 322 321 320 320 320 321 323 323 323 323 325 325 325 327 329 332 335 337 340 345 351 354 357 358 358 358 357 357 356 356 355 355 354 353 353 352 350 350 348 347 346 345 345 344 343 343 342 342 343 342 342 342 341 342 344 344 345 347 349
322 323 323 323 323 322 321 320 320 320 321 322 322 322 323 323 324 326 328 331 334 335 336 340 344 348 352 355 356 358 360 359 359 359 357 357 356 356 355 354 354 352 351 350 349 347 347 346 345 344 344 344 344 344 345 344 344 344 345 345 347 349 350
318 319 320 322 323 323 321 321 321 320 321 321 321 321 322 322 323 325 327 330 332 333 334 337 339 342 346 350 352 355 357 359 361 360 360 359 359 358 358 357 356 355 354 353 352 350 349 348 347 347 346 346 345 345 346 346 346 346 346 347 348 350 351
315 316 317 318 321 322 322 322 322 321 321 321 321 321 321 322 323 324 327 330 331 331 334 335 336 338 340 343 347 350 353 356 358 359 361 361 361 360 359 359 358 358 356 355 354 353 352 351 350 349 348 348 348 348 348 347 347 348 348 349 350 350 352
314 315 316 316 317 320 322 322 322 321 321 320 320 321 321 321 323 324 326 328 330 331 333 333 335 336 337 339 342 345 349 352 355 356 358 360 361 361 361 360 359 358 358 357 356 355 354 353 351 351 350 350 350 349 350 349 350 350 350 350 350 351 352
313 314 315 315 316 318 321 322 322 321 321 321 321 320 320 321 322 323 325 327 328 330 331 332 334 335 335 338 340 342 345 349 352 355 356 357 359 361 361 361 360 359 359 358 357 356 355 354 353 353 352 352 352 351 351 351 351 351 351 352 352 352 353
313 313 313 314 315 316 319 320 321 321 321 321 321 321 320 320 321 323 325 326 327 329 330 331 333 335 336 338 340 341 343 346 350 354 356 355 356 359 360 361 361 361 359 359 358 357 356 356 355 354 354 353 353 352 353 353 352 352 353 352 353 353 353
312 312 313 313 314 315 317 318 319 320 321 321 321 321 320 319 321 323 324 326 327 327 328 330 334 336 338 340 342 343 344 346 350 354 357 357 356 357 359 360 361 361 361 360 359 358 357 356 356 355 354 354 354 354 354 354 354 354 354 354 354 354 354
311 311 312 313 313 315 316 317 317 318 320 321 321 321 320 319 320 322 324 325 326 326 327 330 334 337 339 341 344 345 346 348 351 355 359 361 359 357 358 360 360 361 361 360 359 358 357 357 356 356 355 355 354 355 354 355 355 355 355 355 356 355 355
310 310 311 311 313 314 315 315 316 316 318 320 320 321 320 319 319 321 323 324 325 325 327 330 334 338 341 342 344 347 348 351 354 357 360 362 362 360 359 359 360 361 360 360 359 358 358 357 356 356 355 355 355 355 355 355 355 355 356 356 356 356 355
309 310 310 311 312 312 313 314 315 316 317 319 320 321 320 319 319 320 322 324 325 325 326 330 334 337 340 342 345 348 351 353 354 355 357 359 361 361 360 359 361 361 360 360 360 359 359 358 356 356 356 356 355 355 355 356 355 355 356 356 356 356 356
309 309 310 310 310 311 312 313 314 315 316 318 319 320 320 319 318 319 321 323 324 324 325 329 333 336 337 339 343 348 351 353 353 354 355 357 360 361 361 360 361 361 361 360 359 359 359 358 358 357 356 355 356 355 355 356 355 355 356 356 356 357 356
309 309 309 309 309 311 312 313 314 315 315 317 319 320 320 319 318 318 320 323 324 323 325 328 331 334 336 337 340 345 350 352 353 353 355 357 359 361 362 361 361 361 360 361 360 360 359 359 358 357 357 356 356 356 355 355 355 356 356 356 356 356 356
308 308 309 309 309 310 311 312 313 314 315 317 318 320 320 319 317 318 320 322 323 323 324 327 330 332 334 336 339 344 348 351 352 353 355 357 359 361 362 362 362 361 361 361 361 361 360 360 359 359 358 358 357 356 355 355 355 356 357 356 356 357 356
308 308 308 308 309 310 310 311 313 314 315 317 319 320 320 319 317 318 320 322 323 323 324 327 329 332 334 336 339 343 347 350 352 352 353 356 358 361 362 362 362 361 361 361 361 361 361 360 360 360 359 359 358 357 357 357 357 356 356 356 357 357 357
307 307 308 308 309 310 310 311 313 314 316 318 319 320 320 318 317 318 320 321 322 323 324 326 329 331 333 335 338 342 346 349 351 351 351 354 358 361 362 362 362 362 362 362 361 361 361 361 361 361 360 359 359 358 357 357 357 357 356 356 356 357 357
307 308 308 309 310 311 312 313 314 316 317 318 319 320 319 317 317 319 321 321 321 323 325 327 329 332 333 335 337 341 345 348 351 351 351 353 357 360 361 361 361 361 361 361 361 360 361 361 360 361 361 360 359 359 359 358 357 357 356 356 356 357 357
Wind_Speed
13 13 14 13 14 15 15 16 22 25 27 30 32 34 35 35 36 37 36 38 39 39 40 40 40 40 41 40 40 38 38 37 37 35 35 35 33 31 31 30 30 29 27 26 26 26 26 25 25 23 22 21 20 19 18 17 18 18 16 15 14 14 14
14 13 13 14 14 16 17 18 23 26 27 30 32 34 35 36 37 37 37 38 40 40 41 41 40 41 42 42 40 39 39 39 38 36 35 35 34 32 32 31 30 30 28 27 26 25 25 25 26 25 23 23 22 20 19 17 18 19 19 17 16 14 13
13 15 15 15 16 16 17 18 22 26 28 30 31 34 36 37 39 39 38 38 39 39 40 41 41 41 42 41 40 40 40 40 39 38 36 36 36 35 33 32 32 31 29 28 27 26 25 25 25 26 25 24 23 21 20 18 18 20 20 19 17 16 14
13 15 16 16 16 16 15 16 21 25 28 31 33 35 37 38 39 40 40 39 39 39 39 40 41 41 41 40 40 40 41 41 41 40 39 37 37 37 35 34 34 33 32 30 29 28 26 25 25 26 26 25 24 23 21 20 19 19 20 19 18 17 17
14 14 14 14 14 14 14 15 21 26 28 31 34 35 37 38 37 38 39 39 40 41 41 42 41 40 40 40 40 40 41 42 42 42 40 39 38 37 36 36 36 35 35 33 31 30 28 27 26 26 26 26 25 24 22 21 20 20 19 19 19 19 18
13 14 13 14 14 14 15 17 23 28 30 31 33 34 35 36 36 37 38 38 39 40 40 40 41 41 40 39 39 39 39 40 41 41 40 38 37 37 38 39 38 37 36 35 34 32 31 29 28 27 27 26 26 25 24 23 22 21 21 21 21 21 20
7 14 14 14 15 15 16 17 22 28 30 30 31 31 33 34 35 36 37 37 38 38 38 39 40 40 39 39 39 38 38 39 40 40 39 37 36 37 39 40 40 39 38 36 35 34 32 32 30 29 28 27 27 26 25 25 23 22 22 23 23 23 23
11 7 12 13 14 14 14 16 20 26 28 28 29 29 31 33 34 35 35 37 38 37 37 39 39 40 39 39 39 39 38 38 39 39 38 37 36 36 38 39 40 40 39 38 36 35 34 33 32 31 30 29 28 27 26 25 24 24 24 25 25 25 25
19 10 3 4 6 8 9 12 17 22 25 27 28 29 31 33 34 35 36 36 37 37 38 39 39 39 39 38 38 38 38 37 38 38 38 37 37 36 37 38 39 40 40 39 38 37 36 35 34 33 31 30 30 29 27 26 26 25 25 26 26 27 27
20 18 15 11 7 3 2 5 11 15 19 24 26 28 31 33 33 34 36 36 36 37 38 39 39 38 38 38 38 37 37 37 37 37 38 38 38 38 37 37 37 37 39 40 39 38 38 36 35 34 33 32 31 30 30 28 27 27 27 28 28 28 28
18 18 19 18 15 13 10 6 3 4 11 18 23 26 29 32 33 34 34 35 36 37 38 38 38 37 37 37 36 36 37 38 37 37 38 39 40 40 39 37 35 35 36 38 38 39 38 37 36 35 34 34 33 33 32 31 30 29 29 30 30 30 30
15 16 18 19 18 16 14 12 12 12 10 7 12 20 25 27 30 32 33 35 35 36 37 37 37 36 36 36 36 36 37 38 38 39 39 40 40 41 40 38 36 35 35 36 37 38 38 37 37 36 36 36 36 35 35 33 32 31 31 31 31 31 31
14 14 15 16 17 16 16 16 15 17 20 19 13 6 13 22 26 27 28 31 33 34 34 36 36 36 36 36 36 37 37 38 39 40 39 40 40 40 40 39 38 37 36 36 36 37 37 37 37 37 38 38 38 37 37 36 34 33 32 32 32 32 32
16 15 15 16 17 17 17 17 16 17 21 23 23 20 12 6 16 23 26 27 29 31 32 33 34 35 35 36 36 37 38 39 39 39 39 39 39 39 39 39 39 39 38 36 36 36 37 37 37 37 37 38 38 38 38 37 36 35 34 33 33 32 32
17 17 17 17 17 16 16 15 14 16 20 22 23 25 24 19 10 9 21 27 27 27 30 32 32 33 34 34 36 37 38 38 37 38 38 38 38 39 40 40 39 39 38 37 36 36 36 36 36 35 36 36 37 37 37 36 36 36 36 35 35 34 34
16 16 16 16 15 14 14 14 14 16 20 23 24 24 24 24 23 17 8 19 27 27 28 30 31 32 33 34 36 36 36 36 36 36 36 37 38 40 40 40 39 38 38 38 38 37 36 36 35 35 35 35 35 36 36 36 36 37 37 37 36 36 35
14 15 15 15 15 14 13 13 14 17 19 21 23 24 23 23 23 23 19 8 18 27 29 30 32 34 34 35 36 35 35 36 36 35 36 38 39 39 39 40 39 38 38 38 38 38 37 36 36 36 36 35 35 35 35 36 36 37 37 37 37 36 35
13 14 15 15 15 14 15 15 14 16 18 20 22 23 24 25 24 24 25 21 11 16 27 32 33 34 36 36 36 36 36 36 36 36 37 38 39 40 40 39 38 37 37 37 38 37 37 37 37 38 37 36 35 35 36 37 37 37 37 38 38 37 36
12 12 13 13 14 13 13 14 14 16 18 19 21 22 23 23 23 24 25 24 21 12 17 30 33 34 35 35 35 35 36 35 35 36 37 38 39 39 38 37 37 38 38 38 37 36 36 37 38 38 38 37 37 37 37 38 38 37 37 38 38 38 37
10 11 12 11 11 11 12 14 16 19 22 22 23 24 22 22 24 25 25 24 22 18 10 17 26 30 33 34 34 35 35 35 36 37 38 38 37 36 36 36 38 39 38 37 36 36 37 38 38 38 38 38 38 38 38 38 38 38 38 38 39 38 38
9 10 10 10 10 10 13 16 19 21 24 26 29 28 25 25 27 27 26 25 21 19 16 9 12 20 26 31 33 34 35 36 37 37 38 38 37 36 36 37 38 38 38 37 37 37 38 38 37 38 38 38 38 37 38 39 39 38 38 38 39 38 38
9 8 7 9 10 11 14 17 19 21 23 25 29 28 26 27 29 27 25 23 19 18 18 14 8 8 15 23 28 32 34 36 37 37 37 37 36 36 36 37 39 39 38 37 37 37 37 37 37 38 38 38 38 37 38 40 40 39 39 39 38 38 37
10 10 11 12 12 13 15 17 19 21 22 25 27 26 26 27 28 27 25 21 17 18 18 16 13 9 7 11 17 24 30 33 35 36 36 35 35 36 37 38 38 38 37 35 35 36 36 37 38 38 38 37 37 37 39 40 40 40 40 40 38 37 37
13 14 15 16 16 16 16 17 18 19 21 24 25 26 27 27 26 26 24 19 16 17 17 16 15 14 12 10 10 14 20 25 29 31 33 34 35 36 37 37 37 36 36 36 36 36 36 37 37 37 37 38 39 39 40 41 41 40 40 40 39 37 37
14 16 17 17 18 18 18 18 18 18 20 22 24 27 27 26 24 22 20 19 18 17 16 15 15 15 15 14 12 11 13 18 24 27 29 31 34 37 36 36 36 35 35 36 36 36 36 36 35 36 37 38 39 40 40 41 41 40 40 40 39 38 37
14 16 18 18 19 19 19 19 18 18 19 21 24 26 27 25 23 20 18 19 19 17 17 17 17 17 18 18 16 14 12 13 19 25 28 29 31 33 33 34 34 34 34 35 36 35 35 35 35 35 36 37 38 38 40 41 40 39 40 40 40 39 38
16 17 19 20 21 20 19 20 19 19 20 21 23 24 24 24 24 23 21 19 18 18 19 19 19 19 19 19 19 18 16 14 15 20 27 30 31 30 31 33 33 34 35 35 34 34 34 34 35 35 35 36 36 37 39 40 40 40 39 40 40 40 39
15 17 20 22 22 21 20 20 20 20 22 24 24 23 22 21 21 22 23 21 19 21 22 22 21 20 20 20 20 20 19 17 16 17 22 28 31 31 32 33 33 34 35 34 33 34 34 35 34 34 34 34 35 36 38 39 40 40 39 40 40 40 40
13 15 19 21 22 22 21 21 21 20 22 25 26 24 22 20 19 20 21 22 22 24 24 23 22 21 20 21 21 20 20 19 18 17 19 24 29 32 33 33 33 34 34 34 34 33 33 34 34 33 32 32 33 35 37 37 38 39 40 41 41 41 42
14 15 17 19 22 23 22 22 23 23 24 25 26 25 22 21 20 19 20 23 25 26 24 23 22 20 20 21 21 20 19 18 17 17 18 21 25 31 33 33 33 34 34 34 34 33 32 32 32 31 30 30 31 33 35 36 37 38 40 41 42 42 42
17 17 18 19 21 22 23 24 26 26 26 26 27 26 24 22 21 21 22 25 26 26 25 23 21 19 18 20 20 20 19 18 17 18 20 21 23 28 32 32 32 32 33 33 33 32 31 31 30 31 30 30 30 31 33 34 36 37 38 40 41 42 43
18 19 19 19 20 21 23 26 27 28 27 28 28 27 26 25 24 23 26 27 27 25 24 22 20 18 17 17 19 19 19 19 20 21 22 22 24 27 31 32 32 32 32 32 32 32 32 30 30 30 30 29 30 31 31 32 33 35 36 37 39 41 43
18 20 21 20 20 22 23 23 25 26 27 29 30 28 27 28 28 28 29 29 27 26 23 21 19 19 17 17 18 18 18 19 21 22 23 23 24 27 30 32 33 32 32 32 32 32 31 30 29 28 28 28 29 29 29 30 32 34 35 35 37 40 42
18 21 23 23 22 22 21 21 23 25 27 29 31 30 28 28 30 31 31 30 28 26 23 21 20 20 19 18 18 17 17 19 21 22 23 24 24 26 29 32 33 33 34 35 36 34 32 31 30 29 30 31 30 29 28 30 33 35 36 36 37 39 40
19 22 25 25 23 22 22 21 23 25 27 29 31 31 30 29 30 31 32 31 29 27 24 21 21 21 20 19 20 18 18 19 20 21 23 24 25 27 30 33 35 36 38 40 43 42 40 37 35 35 37 36 34 32 30 30 35 40 41 38 38 40 40
19 22 26 26 24 23 23 23 24 25 27 29 30 30 30 31 31 31 31 31 29 27 24 22 21 21 20 18 19 19 18 18 20 23 24 24 25 26 29 33 37 40 41 42 45 48 48 45 43 42 42 40 38 37 37 38 41 43 41 39 39 40 40
20 23 26 28 25 23 23 24 24 24 25 27 29 29 30 33 33 32 32 31 29 27 26 24 23 22 20 18 18 19 19 20 23 25 26 26 25 26 27 30 34 39 42 43 43 45 49 49 48 47 45 41 39 39 40 42 43 39 35 35 36 37 37
23 24 26 27 25 22 22 23 23 24 24 26 28 29 30 31 32 33 33 31 28 27 27 25 24 23 21 19 18 19 20 22 24 26 28 28 26 26 27 27 28 32 37 41 40 40 43 47 48 48 46 44 41 39 38 40 40 37 34 33 31 32 34
Wind_Direction
197 199 196 194 197 198 199 195 193 192 189 189 190 190 190 191 192 193 194 195 195 196 197 197 198 199 200 202 203 204 207 210 213 215 217 218 218 217 214 214 215 217 218 221 221 220 219 218 215 214 217 219 223 226 229 228 226 224 225 230 240 251 251
197 199 198 196 198 200 200 195 193 193 191 190 191 190 191 191 192 193 194 195 196 197 197 198 199 200 201 202 203 204 206 209 213 216 218 218 219 219 217 216 217 218 221 223 225 224 223 221 219 218 219 221 224 227 229 229 228 226 227 230 238 246 246
200 200 198 197 198 199 199 194 193 194 192 191 191 191 193 193 193 194 194 196 197 198 198 198 200 201 202 203 203 205 207 209 212 215 218 218 219 220 220 220 220 221 223 226 228 228 227 225 223 221 222 224 227 229 231 232 231 229 228 231 237 242 243
204 205 201 200 200 197 196 193 193 195 194 193 192 193 194 195 195 195 195 196 197 198 199 199 201 202 203 203 203 205 206 209 211 214 217 219 220 221 221 221 222 223 225 227 230 231 230 229 227 225 226 228 230 232 233 235 234 231 229 232 237 242 244
206 207 204 202 201 198 195 193 194 195 195 195 194 194 195 195 195 195 197 198 198 199 200 201 201 203 204 205 205 205 207 209 212 214 217 219 220 222 223 223 224 225 227 229 231 232 232 231 230 228 229 230 231 233 234 237 237 234 232 234 239 243 245
210 202 203 203 200 199 198 195 194 195 195 196 195 194 195 194 195 196 197 199 200 201 201 201 202 203 204 205 206 207 208 209 212 214 217 219 221 222 224 225 226 227 229 230 231 232 232 233 232 231 231 231 232 234 235 237 239 238 236 237 240 243 245
247 205 202 202 200 199 199 197 195 195 196 195 195 194 194 194 195 197 198 199 201 201 201 202 203 204 205 206 207 208 208 209 211 214 216 219 221 223 224 225 226 228 229 229 231 232 232 233 234 234 233 232 232 232 233 235 237 239 239 240 241 243 245
334 234 208 206 206 201 198 197 195 193 193 193 193 192 193 195 196 197 198 200 201 201 201 203 203 204 205 206 207 209 209 210 211 213 215 218 221 223 224 224 225 227 227 228 230 232 232 233 234 235 234 233 232 232 232 234 237 238 240 242 244 245 245
2 354 314 238 224 214 207 204 199 194 191 191 192 191 192 194 196 198 200 200 201 202 203 204 205 205 206 207 208 210 210 211 212 213 214 217 220 223 224 225 225 225 226 227 229 230 231 233 235 235 235 234 233 233 234 237 239 239 241 243 245 247 248
12 12 14 17 13 352 274 223 210 202 196 194 192 192 192 195 197 199 200 200 201 202 204 204 205 206 206 207 209 210 210 211 212 213 214 216 219 222 225 226 226 225 226 227 228 229 230 232 234 234 234 234 234 235 237 240 242 242 242 244 246 248 249
17 17 19 21 21 23 23 12 323 244 220 208 200 195 193 195 197 199 200 201 202 203 204 204 205 206 206 207 208 209 210 212 212 213 215 216 218 221 224 226 227 227 227 227 227 228 229 231 231 232 233 235 236 237 239 242 244 245 245 245 247 248 250
22 21 21 21 21 24 25 22 15 5 347 287 228 210 202 198 198 200 201 202 203 204 204 204 205 206 206 207 208 209 211 211 212 214 215 217 219 220 222 224 226 228 229 229 229 229 229 230 231 232 233 236 238 239 241 244 245 246 247 248 248 249 250
25 24 25 22 21 23 24 23 18 12 8 2 348 287 223 211 207 204 204 205 205 205 205 204 205 205 206 207 208 209 211 212 213 214 216 218 220 221 222 223 224 227 229 231 232 232 231 231 232 233 235 237 239 241 243 244 245 246 247 248 248 249 249
24 22 24 23 22 22 22 21 16 12 10 6 5 5 354 264 222 212 209 210 209 206 206 205 205 206 207 208 209 210 212 213 214 215 216 218 220 222 224 224 224 226 227 230 232 234 234 234 234 235 236 238 240 241 243 243 243 244 245 246 247 247 247
25 19 18 19 19 18 19 18 15 12 10 6 4 5 5 1 337 244 217 213 211 209 208 206 205 207 208 209 211 212 213 214 215 216 217 218 220 222 224 225 226 226 227 228 230 233 235 235 236 236 237 238 240 241 242 242 242 243 243 244 244 244 245
25 19 15 14 13 13 14 15 12 10 9 9 7 2 359 358 356 349 286 221 211 209 208 206 205 207 209 211 213 215 215 216 216 216 217 218 220 222 224 226 227 227 228 228 229 231 233 235 236 236 237 238 239 241 241 242 242 243 243 243 243 243 243
21 17 12 8 6 7 8 10 9 7 6 5 3 2 359 353 349 350 348 301 220 210 206 205 206 207 209 213 215 215 216 216 217 217 217 219 220 222 223 225 226 227 229 230 230 231 232 233 235 236 237 238 239 240 241 242 243 243 244 244 244 243 242
17 16 10 3 359 1 5 6 4 1 358 355 355 357 357 354 349 345 346 342 305 230 208 204 205 207 209 212 214 215 215 215 216 217 218 219 220 221 223 224 225 227 228 230 231 232 232 233 235 236 237 238 239 240 241 243 244 244 244 245 245 244 242
14 14 10 360 352 356 358 358 358 354 348 347 348 349 350 351 350 345 339 339 335 303 227 208 205 207 210 212 213 214 215 215 216 217 219 220 221 222 222 222 224 225 227 229 231 232 233 234 235 237 237 238 239 240 242 244 245 245 245 246 246 245 242
12 12 8 355 348 354 353 348 349 347 345 344 341 342 345 346 348 347 341 339 341 337 294 226 210 208 209 210 212 213 213 214 215 217 220 221 222 222 222 222 224 225 226 228 229 230 232 234 235 236 237 238 238 240 241 243 245 245 246 246 246 246 244
4 8 3 347 342 351 350 345 343 341 343 341 337 339 343 344 346 346 343 342 344 344 338 305 237 218 212 210 211 212 212 213 214 216 219 220 220 221 221 222 224 225 226 226 227 228 230 232 234 235 236 237 238 238 240 242 244 245 245 246 247 246 245
351 354 350 341 342 344 343 343 340 337 337 333 332 336 340 341 344 342 336 338 342 343 346 344 320 260 230 221 216 213 212 213 214 216 218 218 218 219 220 222 223 224 225 225 226 228 229 230 232 234 235 236 236 236 239 241 243 243 244 246 246 245 244
341 338 334 334 337 337 336 339 339 335 332 328 328 332 336 338 341 337 329 330 336 343 349 350 345 335 296 257 237 226 219 215 214 216 217 216 217 218 220 222 223 224 224 223 224 226 227 228 230 232 233 235 235 235 237 240 241 242 243 245 245 244 242
332 333 332 331 332 331 331 336 338 333 328 326 325 327 333 338 339 332 321 318 328 342 350 349 345 343 336 321 291 260 241 229 222 219 217 217 217 219 221 222 223 224 223 222 224 225 227 228 229 231 232 233 234 234 235 238 240 240 241 243 244 242 241
325 329 331 332 332 327 323 326 331 329 327 326 324 327 333 336 333 324 313 311 324 338 344 343 340 334 326 321 311 293 272 251 238 229 222 220 220 221 221 222 223 223 223 223 224 225 227 228 229 230 231 232 234 234 235 237 239 239 240 242 242 241 240
319 322 325 331 332 324 318 320 325 326 325 323 322 326 332 332 327 320 313 313 320 330 334 333 330 325 319 313 307 298 287 270 254 242 233 228 226 225 224 223 223 222 222 223 224 225 226 227 227 229 231 231 233 234 234 236 238 238 239 240 240 240 239
315 317 319 324 327 324 318 316 320 321 317 316 319 324 330 331 326 320 317 315 316 322 327 327 323 320 317 314 309 300 290 280 267 253 243 237 233 230 227 225 224 222 221 222 222 223 224 226 226 228 231 231 232 233 234 236 236 236 237 238 239 239 238
313 317 319 319 321 323 320 316 316 317 315 314 317 321 327 329 323 316 315 313 313 319 323 323 321 320 317 313 309 301 292 283 273 262 252 243 236 231 229 227 224 223 222 221 221 221 223 224 225 227 230 231 232 233 234 236 236 236 236 237 237 238 237
308 310 314 316 316 318 319 316 314 312 310 311 313 318 324 325 318 312 311 309 313 321 322 320 320 319 316 314 310 302 294 286 276 267 258 250 240 233 230 227 223 222 221 220 219 220 221 223 224 225 227 229 230 232 234 235 236 236 236 236 236 237 237
305 306 308 310 311 313 315 313 311 309 307 306 308 314 321 324 320 314 307 307 315 322 321 317 317 316 313 312 310 304 296 287 277 270 264 258 247 236 231 227 222 220 220 218 218 218 219 221 222 222 225 227 228 231 232 233 235 236 236 236 236 236 237
300 303 303 305 307 311 313 311 309 309 306 304 306 312 318 323 322 314 307 308 316 321 319 316 313 309 307 307 305 302 296 286 277 271 266 261 252 239 231 225 220 217 216 216 216 217 219 220 219 220 222 224 226 229 230 231 233 235 235 236 236 237 237
296 299 300 302 304 307 309 309 308 307 306 305 306 310 316 322 322 315 310 310 312 316 318 315 307 301 301 303 301 299 293 285 281 278 270 262 253 241 232 225 219 215 214 213 214 216 219 219 218 219 221 223 226 228 229 230 232 233 234 234 235 236 237
293 296 296 297 301 303 304 304 303 304 304 304 305 308 314 318 318 316 314 311 310 313 316 311 301 297 298 301 302 297 291 286 286 284 277 266 254 241 231 223 218 215 212 211 212 216 219 220 219 218 219 223 226 227 227 228 230 232 232 232 232 234 235
289 292 294 295 298 299 298 296 297 299 300 300 302 305 309 312 314 315 315 312 309 312 314 308 297 293 295 300 302 297 290 288 288 287 281 271 257 240 227 219 215 213 213 213 213 214 216 218 218 218 219 222 223 223 223 226 228 229 229 228 229 231 231
286 289 291 293 295 294 292 291 291 293 294 295 298 301 303 306 310 312 313 312 309 310 313 308 298 293 294 300 302 297 290 287 288 288 284 275 260 243 229 220 215 214 215 217 218 218 219 218 218 219 221 222 222 219 218 220 227 231 230 229 229 230 230
283 286 288 290 291 289 288 287 287 288 289 291 294 296 299 303 307 308 309 310 309 309 310 306 298 293 292 294 296 292 287 285 287 288 286 278 263 246 233 225 221 219 218 220 222 223 223 223 223 224 224 223 224 223 222 225 231 234 232 229 230 232 233
277 280 283 285 285 284 284 284 285 284 283 286 289 291 295 301 304 305 307 309 309 308 305 300 293 288 286 286 285 283 281 282 284 286 286 280 264 244 231 224 221 220 221 222 224 224 225 225 228 229 228 226 226 227 229 232 236 236 233 232 232 232 233
274 273 276 278 278 277 279 281 283 282 281 282 284 286 291 297 301 302 305 309 309 305 301 296 287 282 280 279 278 278 279 281 282 282 283 281 267 244 228 221 218 218 221 223 224 225 226 226 228 229 229 229 230 230 231 233 235 234 235 235 234 233 233